Regional Weather Roundup
Issued by NWS

Home | Current Version | Previous Version | Graphics & Text | Print | Product List | Glossary On
Versions: 1 2 3 4 5 6 7 8 9 10 11 12 13 14 15 16 17 18 19 20 21 22 23 24 25 26 27 28 29 30 31 32 33 34 35 36 37 38 39 40 41 42 43 44 45 46 47 48 49
000
ASUS45 KTFX 302110
RWRMT
MONTANA REGIONAL WEATHER ROUNDUP
NATIONAL WEATHER SERVICE GREAT FALLS MT
300 PM MDT THU JUL 30 2015

NOTE: "FAIR" INDICATES FEW OR NO CLOUDS BELOW 12000 FEET WITH NO
SIGNIFICANT WEATHER AND/OR OBSTRUCTIONS TO VISIBILITY.

MTZ001>007-043-302200-
WEST OF THE DIVIDE

CITY           SKY/WX    TMP DP  RH WIND       PRES   REMARKS
KALISPELL      FAIR      88  35  15 S12G21    30.18F
MISSOULA       FAIR      86  36  16 CALM      30.22F
BUTTE          FAIR      79  34  19 VRB3      30.35F
MULLAN PASS    FAIR      75  30  19 NW6       30.40F
DEER LODGE       N/A     82  36  18 CALM      30.33F
EUREKA           N/A     90  36  14 SW6       30.15F
HAMILTON         N/A     84  43  23 NE5       30.23F
LIBBY            N/A     90  34  13 NW5       30.16F
PLAINS           N/A     93  43  17 N2        30.16F
RONAN            N/A     85  38  18 MISG      30.25F
THOMPSON FALLS   N/A     92  38  15 W3        30.18F
$$

MTZ008-052>055-302200-
SOUTHWEST MONTANA

CITY           SKY/WX    TMP DP  RH WIND       PRES   REMARKS
BOZEMAN        FAIR      83  41  22 VRB3      30.30F
DILLON         FAIR      82  36  19 VRB5      30.32F
W YELLOWSTONE  MOSUNNY   75  32  20 NW6       30.44F
THREE FORKS      N/A     84  46  26 E6        30.25F
TWIN BRIDGES     N/A     83  40  21 S5        30.27F
$$

MTZ009-010-012-014-046-048-049-054-302200-
EAST SLOPES AND CENTRAL MONTANA

CITY           SKY/WX    TMP DP  RH WIND       PRES   REMARKS
CUT BANK       FAIR      87  30  13 W17       30.21F
GREAT FALLS    FAIR      84  33  16 CALM      30.24F
MALMSTROM AFB  FAIR      83  32  15 NW5G17    30.24F
HELENA         FAIR      86  40  19 E8        30.24F
CONRAD           N/A     85  42  22 E6        30.23F
$$

MTZ011-013-016-021-045-047-050-051-302200-
NORTH CENTRAL MONTANA

CITY           SKY/WX    TMP DP  RH WIND       PRES   REMARKS
HAVRE          FAIR      86  43  22 SW12G17   30.18F
LEWISTOWN      FAIR      83  39  21 NW5       30.28F
CHINOOK          N/A     84  41  21 W7        30.18F
FORT BENTON      N/A     86  36  16 SW3       30.21S
$$

MTZ017>020-022>027-061-062-302200-
NORTHEAST MONTANA

CITY           SKY/WX    TMP DP  RH WIND       PRES   REMARKS
GLASGOW        MOSUNNY   85  42  22 NW14      30.18F
JORDAN           N/A     87  41  19 NW12G18   30.19F
SIDNEY         SUNNY    N/A N/A N/A W9        30.16F
WOLF POINT     PTSUNNY   88  42  20 NW9       30.17S
MALTA            N/A     86  43  22 W3        30.14F
PLENTYWOOD       N/A     79  43  27 NW15G24   30.17F
POPLAR           N/A     82  46  28 N6        30.17F
SCOBEY           N/A     80  47  31 W5        30.17F
$$

MTZ028>42-056>058-302200-
SOUTHCENTRAL AND SOUTHEAST MONTANA

CITY           SKY/WX    TMP DP  RH WIND       PRES   REMARKS
BAKER          MOSUNNY   87  39  18 NW6G20    30.22F
BILLINGS       MOSUNNY   87  37  17 CALM      30.25F
LIVINGSTON     SUNNY     88  34  14 W12       30.28F
MILES CITY     SUNNY     88  42  20 VRB6      30.18F
EKALAKA          N/A     85  35  16 SW9       30.20F
FORSYTH          N/A     88  39  18 W9G17     30.19F
LAUREL           N/A     88  41  19 N6        30.21F
ROUNDUP          N/A     86  39  18 CALM      30.13F
$$

REGIONAL REPORTS...DAKOTAS

CITY           SKY/WX    TMP DP  RH WIND       PRES   REMARKS
WILLISTON      SUNNY     84  42  22 N13       30.17F
MINOT          SUNNY     81  48  31 NW20G32   30.11F
DICKINSON      MOSUNNY   83  46  27 NW9       30.17F
BEACH          FAIR      82  41  23 N12G17    30.21F
CROSBY         FAIR      77  46  33 NW15G26   30.17S
BISMARCK       SUNNY     85  50  29 NW20G26   30.14S
GRAND FORKS    MOSUNNY   83  56  39 NW16G23   29.98F
FARGO          SUNNY     84  54  35 NW17G28   30.03S
BUFFALO SD       N/A     89  38  16 W20G26    30.15F
RAPID CITY     SUNNY     87  46  24 NE6       30.24F
$$

REGIONAL REPORTS...WYOMING/IDAHO/WASHINGTON

CITY           SKY/WX    TMP DP  RH WIND       PRES   REMARKS
GILLETTE       SUNNY     87  35  15 NW7       30.29F
SHERIDAN       SUNNY     89  36  15 VRB3      30.26F
BUFFALO WY     SUNNY     84  35  17 E3        30.33F
CODY           SUNNY     82  34  17 E6G17     30.32S
YELLOWSTONE LA   N/A     67  41  38 SE8       30.55S
IDAHO FALLS    SUNNY     85  29  13 W8        30.32F
SALMON         FAIR      82  43  24 NW6       30.24F
BOISE          FAIR      91  31  11 W9        30.19F
SPOKANE        FAIR      93  32  11 MISG      30.16F
$$

REGIONAL REPORTS...ALBERTA

CITY           SKY/WX    TMP DP  RH WIND       PRES   REMARKS
CALGARY        MOSUNNY   79  43  27 SE10G17   30.19F
LETHBRIDGE     MOSUNNY   84  39  20 VRB8      30.16F
MEDICINE HAT   MOSUNNY   84  43  23 SW9       30.16F
WATERTON GATE    N/A     82  39  21 SW12G28     N/A
CARDSTON         N/A     84  34  16 SW9G18      N/A
MILK RIVER       N/A     86  37  17 NW7         N/A
ONEFOUR          N/A     81  37  21 NW8         N/A
$$

REGIONAL REPORTS...SASKATCHEWAN

CITY           SKY/WX    TMP DP  RH WIND       PRES   REMARKS
SWIFT CURRENT  MOSUNNY   77  45  31 W6        30.18F
REGINA         MOSUNNY   75  54  46 NW16G23   30.14F
SASKATOON      MOSUNNY   77  45  31 W21G30    30.11S
CYPRESS HILLS    N/A     75  41  29 W8          N/A
VAL MARIE        N/A     79  46  31 NW13        N/A
ROCKGLEN         N/A     77  45  31 W9          N/A
ASSINIBOIA       N/A     73  43  33 NW14G21     N/A
$$



USA.gov is the U.S. government's official web portal to all federal, state and local government web resources and services.